RH
10 13 18 17 14 12 10 10 10 12 12 13 12 12 12 12 12 15 14 15 15 23 28 29 34 37 34 37 32 40 53 52 42 46 48 50 54 48 50 45 48 46 50 52
10 17 14 12 12 12 12 12 12 12 12 12 13 12 13 14 15 15 16 19 24 26 25 28 33 39 46 43 46 50 46 42 40 40 48 50 50 48 47 48 51 50 54 50
20 17 14 14 15 16 14 16 22 20 15 13 14 15 16 15 16 16 18 19 21 24 27 29 35 42 47 46 46 37 38 41 49 46 39 44 46 48 48 48 49 48 48 46
17 15 16 16 19 20 20 20 20 18 18 19 13 20 19 17 19 20 21 23 22 22 22 25 34 41 46 48 48 41 40 38 41 45 48 48 48 52 53 58 54 55 51 52
21 20 20 21 22 20 24 22 20 20 20 20 16 20 23 17 21 23 25 24 26 28 29 31 34 37 40 48 52 47 41 38 40 44 48 52 60 62 61 63 59 55 57 53
19 16 20 22 20 19 21 23 22 22 24 49 20 22 37 23 23 25 25 26 27 27 30 30 33 36 40 48 50 47 41 36 41 45 51 56 56 57 56 56 58 54 54 54
20 21 20 19 24 22 19 25 48 60 62 56 25 23 33 24 23 24 26 27 30 33 34 32 31 34 39 44 45 44 42 38 40 44 44 47 51 55 56 57 58 57 56 59
25 39 23 20 25 25 25 26 59 62 64 43 20 21 30 24 23 23 24 25 27 31 35 34 34 38 38 42 44 45 43 41 40 47 46 50 54 53 53 58 56 60 61 61
31 32 22 22 21 21 29 37 23 45 65 63 24 28 26 23 24 23 24 24 26 29 30 31 32 37 39 41 44 48 46 43 43 48 55 56 56 58 58 56 58 59 60 48
24 38 22 20 22 24 25 21 41 48 71 58 29 26 42 30 27 24 23 24 25 28 29 34 33 39 39 41 48 54 49 45 46 47 54 49 52 53 54 55 56 60 62 58
24 32 30 24 29 29 28 30 29 25 45 60 58 32 23 26 24 26 27 25 29 31 32 33 34 36 37 41 43 50 50 47 48 47 51 56 55 54 55 56 61 62 63 61
29 36 66 26 24 23 24 28 26 68 56 70 76 49 22 26 30 29 29 30 32 35 36 36 39 41 41 45 45 46 52 53 52 52 52 50 52 50 53 59 57 60 60 62
35 49 63 38 35 28 26 26 25 42 67 64 89 55 24 40 31 27 28 32 35 37 36 38 41 41 39 41 45 45 50 52 50 48 48 47 50 50 54 54 54 56 58 58
53 31 49 55 32 24 30 23 22 27 70 61 58 37 29 32 34 29 30 36 37 38 43 44 44 43 40 41 41 41 43 55 53 49 48 51 54 50 50 51 51 54 52 49
38 61 44 36 27 24 24 25 24 25 32 51 42 32 27 31 31 42 42 41 41 45 46 47 48 44 39 40 37 34 37 41 50 54 51 56 51 47 49 53 51 52 51 44
42 80 82 74 28 27 36 28 26 24 23 26 29 32 27 37 38 44 46 47 51 49 47 44 43 38 35 33 30 29 31 34 45 43 49 47 48 50 53 54 54 51 48 45
81 91 78 80 58 67 87 64 30 26 25 30 54 35 37 44 45 44 49 51 52 48 46 46 38 33 30 27 26 27 27 28 38 40 41 50 71 65 64 51 44 42 49 52
99 96 96 95 92 89 37 26 26 31 27 26 26 35 42 47 45 42 51 54 50 49 46 39 30 29 28 27 25 26 24 27 29 32 38 54 62 60 53 52 51 48 49 54
61 92 95 100 71 53 41 35 40 48 47 32 44 48 49 48 46 48 47 46 46 44 36 27 26 27 26 24 25 26 28 28 28 29 44 48 64 50 54 54 54 51 51 55
63 97 92 96 94 81 60 32 33 37 64 50 55 61 63 53 82 58 48 45 38 28 24 24 24 21 22 25 25 27 28 30 34 53 52 48 43 50 53 59 56 51 52 50
93 93 95 91 93 76 38 33 37 72 77 65 68 64 63 67 71 59 44 35 26 24 23 24 21 22 24 24 26 30 30 31 42 47 54 60 56 48 49 52 46 51 52 62
82 94 97 91 95 88 39 38 75 70 69 68 63 63 66 62 61 42 34 29 25 23 21 19 22 24 26 25 28 31 32 37 46 54 55 56 51 46 35 47 53 53 56 73
61 70 77 69 74 48 43 51 54 74 74 71 70 59 56 57 46 36 33 29 26 22 20 20 22 26 27 27 28 33 36 41 48 54 52 51 45 40 44 52 53 56 62 81
37 30 80 75 45 39 44 49 62 62 64 58 55 56 54 46 40 34 31 29 26 22 22 23 27 27 30 30 31 39 42 46 50 52 53 50 50 56 52 45 49 58 83 88
60 41 52 56 44 43 54 60 62 64 58 58 51 50 38 35 33 32 30 28 26 25 26 27 29 31 35 33 38 43 46 54 51 57 55 62 74 67 58 49 63 80 74 74
48 49 69 78 52 62 65 61 59 62 59 51 49 38 33 32 31 28 30 30 27 29 28 28 32 37 36 38 47 52 53 58 76 78 74 74 77 78 66 61 64 72 70 62
Wind_Speed
6 8 7 12 8 7 10 7 7 15 7 3 9 8 11 6 5 5 5 7 7 16 19 17 12 9 8 8 3 12 10 8 3 3 4 5 4 4 5 5 7 5 5 7
5 6 8 6 7 6 6 6 7 6 5 6 8 10 12 6 9 11 9 9 14 14 14 13 9 8 11 12 14 9 9 7 7 5 4 3 2 2 2 4 7 7 7 7
13 10 4 4 5 8 3 7 9 9 7 8 11 6 15 11 10 11 14 14 14 13 12 11 13 11 10 11 11 13 12 10 8 7 6 4 4 4 3 3 3 5 7 5
8 4 3 1 6 9 3 6 5 8 8 7 13 3 14 14 12 12 13 11 10 9 10 11 13 11 10 10 10 10 7 6 6 7 4 2 1 2 2 3 6 7 4 6
6 4 5 4 6 7 6 5 6 8 9 10 10 7 14 16 14 13 10 9 9 10 11 11 10 10 10 7 6 5 5 5 4 5 3 2 4 5 4 3 5 5 6 7
8 3 8 7 4 2 6 9 9 8 9 3 11 2 7 2 13 12 9 7 7 7 8 8 8 10 8 6 5 4 5 1 4 4 2 3 4 4 4 4 4 5 4 5
8 6 6 7 10 6 8 8 4 2 2 4 5 2 11 11 12 12 8 10 8 6 6 4 6 8 6 4 1 2 6 8 5 3 2 3 3 4 6 6 5 7 5 4
7 7 6 7 7 8 5 7 3 3 4 3 4 3 9 14 11 10 9 5 6 7 4 5 5 3 4 4 5 4 5 8 8 5 4 5 7 4 5 6 5 4 3 4
5 8 6 7 6 8 7 6 4 1 2 1 6 17 15 11 8 9 5 0 3 4 5 3 4 5 1 2 3 2 2 4 7 5 6 7 6 6 4 4 4 3 4 6
5 3 5 3 4 4 5 1 2 3 2 3 8 5 8 4 6 5 7 6 7 4 3 4 6 6 6 9 9 9 7 8 8 8 6 5 4 3 3 4 6 5 5 7
7 5 3 5 8 9 0 2 2 4 2 2 3 3 4 7 5 5 5 6 7 7 6 1 10 12 12 13 8 7 8 10 8 6 6 6 5 4 5 4 6 6 7 8
4 3 2 8 5 3 3 5 3 1 1 3 1 6 7 8 11 6 7 7 10 12 13 13 12 12 11 9 11 10 10 6 5 5 6 7 6 6 7 6 6 6 5 6
5 2 3 8 5 3 3 4 1 7 2 3 2 4 5 14 11 11 8 10 11 9 9 8 8 10 12 13 12 10 8 5 3 4 5 7 6 7 7 6 5 5 5 6
3 1 2 2 5 7 7 8 8 8 3 5 7 14 14 4 6 5 8 10 11 12 10 10 11 11 11 10 10 7 7 2 5 8 6 5 3 2 3 4 5 6 6 6
3 3 6 8 9 9 10 11 11 12 9 8 10 13 9 10 10 15 13 13 11 10 11 12 12 11 10 10 10 10 9 10 8 8 6 6 4 4 4 3 4 5 6 6
6 2 3 3 4 10 12 14 14 15 14 9 12 13 7 15 12 12 11 11 12 12 13 13 14 12 11 12 12 13 12 13 4 6 8 9 7 6 5 5 5 5 5 5
4 2 1 2 9 10 2 4 5 4 6 9 5 8 13 10 10 12 8 10 12 12 13 13 12 10 11 11 13 13 15 16 11 10 7 4 8 6 5 5 5 7 5 6
5 3 2 3 5 3 3 12 12 9 7 7 7 8 8 11 13 12 10 9 11 12 12 12 10 10 10 12 12 13 15 17 18 15 9 3 3 5 8 2 4 7 5 6
5 2 3 1 3 9 11 4 7 5 9 10 7 8 11 13 10 4 9 10 8 9 10 10 11 12 11 12 14 15 16 16 17 18 10 10 4 7 6 5 6 6 5 6
6 5 1 3 2 4 2 8 7 8 8 8 10 10 9 12 6 7 14 12 11 12 11 12 13 12 13 12 14 15 15 16 16 15 11 9 9 6 5 5 6 4 5 5
3 1 3 4 4 7 9 4 4 4 2 5 5 9 8 6 4 10 10 9 12 12 13 13 12 11 11 13 13 14 15 15 12 10 9 10 11 9 6 5 3 4 4 3
7 7 4 3 4 6 2 2 1 4 6 4 2 3 6 8 9 10 9 11 13 13 14 14 13 11 12 12 12 12 14 13 12 9 9 8 8 8 5 4 4 6 6 6
4 6 4 10 7 8 3 5 4 2 3 2 3 6 8 7 10 10 10 11 12 14 13 13 12 13 13 11 11 12 12 9 9 10 12 9 8 7 5 5 6 4 4 3
4 7 4 2 6 9 5 3 8 6 2 2 4 5 10 8 8 10 10 11 11 12 14 12 15 15 12 13 13 11 11 11 11 10 10 9 6 6 5 4 4 4 3 3
5 5 6 9 12 9 9 6 6 3 5 5 5 10 6 7 9 11 12 12 12 13 12 14 13 13 13 14 12 11 10 9 9 9 9 8 4 5 5 5 4 3 4 3
6 10 7 8 3 2 4 4 3 4 3 6 4 5 7 9 11 13 11 12 13 14 14 13 14 15 14 13 11 8 5 4 5 5 5 5 4 3 4 3 3 7 6 3
Wind_Direction
214 268 56 24 25 350 328 7 332 100 98 313 266 284 73 346 127 82 60 38 51 61 58 58 48 37 57 37 338 70 94 41 66 93 69 39 25 7 30 10 38 2 13 13
235 76 46 2 17 333 315 339 292 65 70 275 242 226 105 77 44 62 92 76 74 72 69 65 64 50 42 44 81 75 88 61 24 55 73 65 20 358 338 29 0 20 28 1
49 70 51 4 48 335 152 347 18 340 327 270 281 196 131 115 101 82 60 64 79 81 84 83 72 57 52 46 53 70 69 58 30 13 55 28 24 15 33 11 354 327 333 293
63 66 13 330 84 346 348 37 317 283 275 271 184 278 139 148 122 97 78 70 77 82 88 91 87 79 69 55 53 61 71 92 79 21 106 57 46 270 300 5 337 303 322 323
106 85 1 48 17 332 46 333 296 286 271 276 263 236 136 154 149 116 89 89 78 48 57 73 81 85 79 72 56 65 96 83 80 107 46 293 338 356 332 295 284 319 16 356
82 74 44 4 299 305 299 256 234 256 249 268 259 335 57 115 94 103 103 87 61 86 91 94 112 110 105 85 56 33 357 147 166 213 215 20 339 308 328 325 4 17 358 352
141 69 108 349 288 204 334 325 258 238 164 237 35 295 91 108 65 101 96 89 74 36 36 91 94 82 73 62 84 282 342 334 348 137 57 278 273 354 6 23 21 5 333 335
200 140 6 19 21 348 344 316 37 329 352 6 187 279 104 104 103 95 95 86 141 119 116 70 57 22 44 10 340 6 5 326 334 25 10 28 42 35 26 27 360 319 343 322
334 92 112 51 354 345 3 40 354 178 347 295 262 100 100 120 123 107 97 97 122 135 145 147 262 166 147 306 305 45 272 304 290 8 51 49 36 25 22 6 299 287 299 344
46 128 29 52 249 77 42 4 324 18 332 323 350 29 113 182 112 87 59 19 20 104 30 20 355 18 22 18 12 6 12 37 38 43 34 30 343 349 336 305 284 20 11 344
354 331 94 234 23 13 108 63 32 324 18 294 334 51 43 86 72 20 360 351 32 41 55 351 22 23 20 9 0 36 36 19 9 20 13 338 327 325 304 323 31 21 9 351
36 78 307 67 74 10 3 19 8 348 33 105 19 279 69 60 30 29 12 12 26 37 28 20 19 16 20 19 3 12 3 343 4 343 338 325 319 346 345 14 15 1 335 319
352 47 254 152 156 143 307 56 60 94 101 250 180 263 254 25 300 29 19 51 53 28 14 21 9 1 354 354 353 328 309 336 342 316 299 312 345 359 4 344 344 332 311 295
310 87 97 353 324 337 303 276 259 253 188 263 276 289 314 248 93 3 16 55 24 15 26 15 356 349 347 339 304 315 334 27 281 278 266 299 9 339 312 306 1 342 329 322
18 41 6 322 315 304 300 291 285 272 254 240 260 266 320 17 15 46 27 9 0 10 2 358 332 335 338 325 329 319 327 314 349 312 288 285 227 222 254 17 3 329 316 319
45 93 353 263 347 349 308 294 292 282 272 291 316 305 63 49 32 22 14 351 8 2 350 337 341 331 334 337 337 333 317 315 284 288 261 297 303 269 11 6 331 310 307 330
53 139 4 287 347 314 322 260 274 331 311 317 298 290 41 36 10 352 2 13 357 342 338 329 322 335 346 344 332 331 329 322 310 300 292 3 38 350 299 283 330 324 325 307
119 70 67 300 310 11 42 319 293 317 282 284 319 46 56 20 356 355 55 16 348 339 330 312 333 336 344 328 329 334 335 330 321 317 309 316 304 248 252 24 342 293 304 300
125 151 88 336 306 297 302 58 30 7 308 321 33 33 10 351 337 44 64 4 344 316 303 330 333 347 334 342 348 342 330 318 317 314 0 339 167 272 350 11 329 290 301 297
62 80 293 126 243 255 334 41 41 321 276 57 29 13 350 338 340 339 353 335 324 329 328 332 345 335 344 351 346 331 330 334 337 352 339 354 321 329 343 333 284 291 304 338
91 159 212 199 245 278 269 337 354 238 40 28 17 354 347 334 336 304 309 330 321 318 332 339 333 341 350 346 336 333 329 325 357 357 355 345 324 324 293 280 305 321 325 328
168 168 196 196 235 254 348 344 199 19 344 89 358 316 306 312 294 307 335 321 317 330 331 331 338 344 345 331 328 329 327 346 350 341 328 309 291 290 315 325 354 326 319 44
211 190 185 184 212 224 98 213 300 332 237 82 272 308 296 296 296 334 319 313 325 330 326 334 336 334 319 321 330 329 333 345 329 324 315 309 323 325 9 339 309 312 34 46
280 277 185 196 254 274 305 98 113 157 155 296 256 280 277 299 338 306 310 323 331 334 331 340 336 315 328 336 338 342 344 350 337 328 327 311 324 342 319 314 338 27 37 36
229 285 280 286 293 301 70 81 122 26 282 254 270 258 322 321 302 322 335 331 332 325 338 332 318 327 333 329 333 350 349 338 329 330 329 316 324 335 338 337 23 44 75 81
238 258 250 261 289 295 102 126 201 256 281 250 249 344 319 317 335 333 341 343 341 340 329 327 331 328 323 326 333 329 334 343 357 321 313 327 312 322 307 345 357 89 92 170